Weather History for KMBG - May, 2013

Change the Weather History Date:

Monday, May 13, 2013

  Actual Average Record
Temperature  
Mean Temperature 74 °F 55 °F  
Max Temperature 93 °F 68 °F 95 °F (1932)
Min Temperature 54 °F 43 °F 24 °F (1945)
Degree Days  
Heating Degree Days 0 10  
Month to date heating degree days 203 154  
Since 1 July heating degree days 8101 7749  
Cooling Degree Days 9 0  
Month to date cooling degree days 9 0  
Year to date cooling degree days 9 1  
Growing Degree Days 22 (Base 50)    
Moisture  
Dew Point 38 °F    
Average Humidity 33    
Maximum Humidity 51    
Minimum Humidity 15    
Precipitation  
Precipitation 0.00 in 0.10 in 0.60 in (1933)
Month to date precipitation T 1.15  
Year to date precipitation 3.05 4.35  
Sea Level Pressure  
Sea Level Pressure 29.75 in    
Wind  
Wind Speed 11 mph (SSW)    
Max Wind Speed 24 mph    
Max Gust Speed 32 mph    
Visibility 10 miles    
Events      
T = Trace of Precipitation, MM = Missing Value Source: NWS Daily Summary

Daily Weather History Graph

Daily Weather History Graph

Search for Another Location

Airport or City:

Trip Planner

Search our weather history database for the weather conditions in past years. The results will help you decide how hot, cold, wet, or windy it might be!

Date:

Astronomy

May. 13, 2013 Rise Set
Actual Time 6:12 AM CDT 9:03 PM CDT
Civil Twilight 5:38 AM CDT 9:38 PM CDT
Nautical Twilight 4:54 AM CDT 10:22 PM CDT
Astronomical Twilight 4:03 AM CDT 11:14 PM CDT
Moon 8:59 AM CDT (5/13) No Moon Set
Length of Visible Light 15h 59m
Length of Day
14h 50m
Waxing Crescent, 12% of the Moon is Illuminated
May 13
Waxing Crescent
May 17
First Quarter
May 24
Full
May 31
Last Quarter
Jun 8
New

Hourly Weather History & Observations

Time (CDT) Temp. Dew Point Humidity Pressure Visibility Wind Dir Wind Speed Gust Speed Precip Events Conditions
12:52 AM 57.9 °F 28.9 °F 33% 29.90 in 10.0 mi SSE 11.5 mph - N/A   Clear
1:52 AM 55.9 °F 30.9 °F 39% 29.89 in 10.0 mi SSE 10.4 mph - N/A   Mostly Cloudy
2:52 AM 55.9 °F 30.9 °F 39% 29.86 in 10.0 mi South 13.8 mph - N/A   Clear
3:52 AM 55.9 °F 32.0 °F 40% 29.82 in 10.0 mi SSE 13.8 mph - N/A   Mostly Cloudy
4:52 AM 55.9 °F 33.1 °F 42% 29.79 in 10.0 mi South 13.8 mph - N/A   Mostly Cloudy
5:52 AM 57.0 °F 33.1 °F 40% 29.75 in 10.0 mi South 19.6 mph - N/A   Clear
6:52 AM 54.0 °F 35.1 °F 49% 29.76 in 10.0 mi SSE 9.2 mph - N/A   Clear
7:52 AM 55.0 °F 37.0 °F 51% 29.77 in 10.0 mi South 8.1 mph - N/A   Clear
8:52 AM 60.1 °F 37.0 °F 42% 29.78 in 10.0 mi South 6.9 mph - N/A   Clear
9:52 AM 66.9 °F 39.9 °F 37% 29.76 in 10.0 mi South 3.5 mph - N/A   Clear
10:52 AM 75.9 °F 41.0 °F 29% 29.76 in 10.0 mi WNW 5.8 mph - N/A   Clear
11:52 AM 84.0 °F 43.0 °F 24% 29.75 in 10.0 mi WNW 6.9 mph - N/A   Clear
12:52 PM 88.0 °F 42.1 °F 20% 29.73 in 10.0 mi WNW 16.1 mph - N/A   Clear
1:52 PM 89.1 °F 42.1 °F 19% 29.73 in 10.0 mi WNW 17.3 mph - N/A   Clear
3:52 PM 91.0 °F 39.0 °F 16% 29.72 in 10.0 mi WNW 18.4 mph 27.6 mph N/A   Clear
4:52 PM 90.0 °F 39.0 °F 17% 29.70 in 10.0 mi WNW 17.3 mph 25.3 mph N/A   Clear
5:52 PM 91.9 °F 37.0 °F 15% 29.69 in 10.0 mi NW 21.9 mph 31.1 mph N/A   Clear
7:52 PM 84.0 °F 42.1 °F 23% 29.68 in 9.0 mi NNW 4.6 mph - N/A   Clear
8:52 PM 73.0 °F 44.1 °F 35% 29.69 in 10.0 mi Calm Calm - N/A   Clear
9:52 PM 66.0 °F 41.0 °F 40% 29.69 in 10.0 mi ESE 3.5 mph - N/A   Clear
10:52 PM 71.1 °F 41.0 °F 34% 29.66 in 10.0 mi East 8.1 mph - N/A   Clear
11:52 PM 62.1 °F 42.1 °F 48% 29.65 in 10.0 mi ESE 8.1 mph - N/A   Clear